* Astronomy

Members Login
Username 
 
Password 
    Remember Me  
Post Info TOPIC: Asteroid 2010 OH126


L

Posts: 131433
Date:
RE: Asteroid 2010 OH126
Permalink  
 


Removed as an Earth Impact Risk.

__________________


L

Posts: 131433
Date:
Permalink  
 

2010 OH126
Earth Impact Risk Summary
Torino Scale (maximum) 0
Palermo Scale (maximum) -6.58
Palermo Scale (cumulative) -6.56
Impact Probability (cumulative) 1.9e-09
Number of Potential Impacts 2
Vimpact 18.45 km/s
Vinfinity 14.70 km/s
H 21.0
Diameter 0.220 km
Mass 1.4e+10 kg
Energy 5.6e+02 MT
all above are mean values
weighted by impact probability
Analysis based on
13 observations spanning 6.2947 days
(2010-Jul-31.5179 to 2010-Aug-06.81259)



__________________


L

Posts: 131433
Date:
Permalink  
 

Orbital elements:
2010 OH126 Earth MOID = 0.0639 AU
Epoch 2010 July 23.0 TT = JDT 2455400.5 MPC
M 9.76454 (2000.0) P Q
n 0.41688049 Peri. 174.70797 +0.04550376 +0.97105549
a 1.7747138 Node 97.75124 -0.92499479 +0.12959708
e 0.4642240 Incl. 13.68842 -0.37724534 -0.20063854
P 2.36 H 21.3 G 0.15 U 8

MPEC 2010 - P38


__________________
Page 1 of 1  sorted by
 
Quick Reply

Please log in to post quick replies.



Create your own FREE Forum
Report Abuse
Powered by ActiveBoard